Time,TemperatureF,DewpointF,PressureIn,WindDirection,WindDirectionDegrees,WindSpeedMPH,WindSpeedGustMPH,Humidity,HourlyPrecipIn,Conditions,Clouds,dailyrainin,SoftwareType,DateUTC
2013-01-24 00:08:00,43.8,40.0,30.19,SW,232,0.0,0.0,87,0.00,,,0.00,weatherlink.com 1.10,2013-01-24 06:08:00,
2013-01-24 00:23:00,43.1,40.0,30.19,SW,232,0.0,0.0,88,0.00,,,0.00,weatherlink.com 1.10,2013-01-24 06:23:00,
2013-01-24 00:38:00,43.0,40.0,30.19,SW,232,0.0,0.0,89,0.00,,,0.00,weatherlink.com 1.10,2013-01-24 06:38:00,
2013-01-24 00:53:00,43.1,40.0,30.19,SW,232,0.0,0.0,89,0.00,,,0.00,weatherlink.com 1.10,2013-01-24 06:53:00,
2013-01-24 01:08:00,42.3,39.0,30.19,SW,232,0.0,0.0,89,0.00,,,0.00,weatherlink.com 1.10,2013-01-24 07:08:00,
2013-01-24 01:23:00,41.8,39.0,30.19,SW,232,0.0,0.0,90,0.00,,,0.00,weatherlink.com 1.10,2013-01-24 07:23:00,
2013-01-24 01:38:00,42.4,40.0,30.18,North,354,0.0,1.0,92,0.00,,,0.00,weatherlink.com 1.10,2013-01-24 07:38:00,
2013-01-24 01:53:00,43.3,41.0,30.18,North,354,0.0,1.0,92,0.00,,,0.00,weatherlink.com 1.10,2013-01-24 07:53:00,
2013-01-24 02:08:00,43.4,41.0,30.18,North,354,0.0,1.0,91,0.00,,,0.00,weatherlink.com 1.10,2013-01-24 08:08:00,
2013-01-24 02:23:00,43.6,41.0,30.18,North,354,0.0,0.0,91,0.00,,,0.00,weatherlink.com 1.10,2013-01-24 08:23:00,
2013-01-24 02:38:00,42.9,41.0,30.18,North,354,0.0,0.0,91,0.00,,,0.00,weatherlink.com 1.10,2013-01-24 08:38:00,
2013-01-24 02:53:00,42.5,40.0,30.18,North,354,0.0,1.0,92,0.00,,,0.00,weatherlink.com 1.10,2013-01-24 08:53:00,
2013-01-24 03:08:00,41.9,40.0,30.18,North,354,0.0,0.0,92,0.00,,,0.00,weatherlink.com 1.10,2013-01-24 09:08:00,
2013-01-24 03:23:00,41.8,40.0,30.18,North,354,0.0,0.0,93,0.00,,,0.00,weatherlink.com 1.10,2013-01-24 09:23:00,
2013-01-24 03:38:00,-999.0,-99.9,30.18,North,-999,-999.0,-999.0,-999,0.00,,,0.00,weatherlink.com 1.10,2013-01-24 09:38:00,
2013-01-24 03:53:00,-999.0,-99.9,30.17,North,-999,-999.0,-999.0,-999,0.00,,,0.00,weatherlink.com 1.10,2013-01-24 09:53:00,
2013-01-24 04:08:00,-999.0,-99.9,30.18,North,-999,-999.0,-999.0,-999,0.00,,,0.00,weatherlink.com 1.10,2013-01-24 10:08:00,
2013-01-24 04:23:00,-999.0,-99.9,30.19,North,-999,-999.0,-999.0,-999,0.00,,,0.00,weatherlink.com 1.10,2013-01-24 10:23:00,
2013-01-24 04:39:00,-999.0,-99.9,30.20,North,-999,-999.0,-999.0,-999,0.00,,,0.00,weatherlink.com 1.10,2013-01-24 10:39:00,
2013-01-24 04:54:00,-999.0,-99.9,30.20,North,-999,-999.0,-999.0,-999,0.00,,,0.00,weatherlink.com 1.10,2013-01-24 10:54:00,
2013-01-24 05:09:00,-999.0,-99.9,30.20,North,-999,-999.0,-999.0,-999,0.00,,,0.00,weatherlink.com 1.10,2013-01-24 11:09:00,
2013-01-24 05:24:00,-999.0,-99.9,30.20,North,-999,-999.0,-999.0,-999,0.00,,,0.00,weatherlink.com 1.10,2013-01-24 11:24:00,
2013-01-24 05:39:00,-999.0,-99.9,30.21,North,-999,-999.0,-999.0,-999,0.00,,,0.00,weatherlink.com 1.10,2013-01-24 11:39:00,
2013-01-24 05:54:00,-999.0,-99.9,30.21,North,-999,-999.0,-999.0,-999,0.00,,,0.00,weatherlink.com 1.10,2013-01-24 11:54:00,
2013-01-24 06:09:00,-999.0,-99.9,30.21,North,-999,-999.0,-999.0,-999,0.00,,,0.00,weatherlink.com 1.10,2013-01-24 12:09:00,
2013-01-24 06:24:00,-999.0,-99.9,30.21,North,-999,-999.0,-999.0,-999,0.00,,,0.00,weatherlink.com 1.10,2013-01-24 12:24:00,
2013-01-24 06:39:00,-999.0,-99.9,30.22,North,-999,-999.0,-999.0,-999,0.00,,,0.00,weatherlink.com 1.10,2013-01-24 12:39:00,
2013-01-24 06:54:00,-999.0,-99.9,30.23,North,-999,-999.0,-999.0,-999,0.00,,,0.00,weatherlink.com 1.10,2013-01-24 12:54:00,
2013-01-24 07:09:00,-999.0,-99.9,30.23,North,-999,-999.0,-999.0,-999,0.00,,,0.00,weatherlink.com 1.10,2013-01-24 13:09:00,
2013-01-24 07:24:00,-999.0,-99.9,30.24,North,-999,-999.0,-999.0,-999,0.00,,,0.00,weatherlink.com 1.10,2013-01-24 13:24:00,
2013-01-24 07:39:00,49.5,46.0,30.24,NW,323,1.0,4.0,87,0.00,,,0.00,weatherlink.com 1.10,2013-01-24 13:39:00,
2013-01-24 07:54:00,49.6,46.0,30.25,NW,314,4.0,5.0,86,0.00,,,0.00,weatherlink.com 1.10,2013-01-24 13:54:00,
2013-01-24 08:10:00,49.8,45.0,30.25,WNW,299,1.0,5.0,84,0.00,,,0.00,weatherlink.com 1.10,2013-01-24 14:10:00,
2013-01-24 08:24:00,50.3,45.0,30.26,NNW,347,2.0,5.0,82,0.00,,,0.00,weatherlink.com 1.10,2013-01-24 14:24:00,
2013-01-24 08:40:00,51.5,45.0,30.27,NW,308,1.0,8.0,78,0.00,,,0.00,weatherlink.com 1.10,2013-01-24 14:40:00,
2013-01-24 08:55:00,51.8,44.0,30.27,North,1,4.0,8.0,76,0.00,,,0.00,weatherlink.com 1.10,2013-01-24 14:55:00,
2013-01-24 09:10:00,52.4,44.0,30.28,WNW,294,2.0,8.0,73,0.00,,,0.00,weatherlink.com 1.10,2013-01-24 15:10:00,
2013-01-24 09:25:00,52.6,42.0,30.28,NNE,14,3.0,10.0,68,0.00,,,0.00,weatherlink.com 1.10,2013-01-24 15:25:00,
2013-01-24 09:40:00,52.8,42.0,30.29,NNW,339,5.0,10.0,67,0.00,,,0.00,weatherlink.com 1.10,2013-01-24 15:40:00,
2013-01-24 09:55:00,53.1,42.0,30.30,NNW,345,2.0,9.0,66,0.00,,,0.00,weatherlink.com 1.10,2013-01-24 15:55:00,
2013-01-24 10:10:00,53.3,42.0,30.30,NNE,19,5.0,9.0,65,0.00,,,0.00,weatherlink.com 1.10,2013-01-24 16:10:00,
2013-01-24 10:25:00,53.9,41.0,30.30,NNE,21,3.0,10.0,63,0.00,,,0.00,weatherlink.com 1.10,2013-01-24 16:25:00,
2013-01-24 10:40:00,53.9,41.0,30.30,NNW,336,3.0,11.0,61,0.00,,,0.00,weatherlink.com 1.10,2013-01-24 16:40:00,
2013-01-24 10:55:00,53.6,40.0,30.29,NNE,25,7.0,9.0,61,0.00,,,0.00,weatherlink.com 1.10,2013-01-24 16:55:00,
2013-01-24 11:10:00,54.3,41.0,30.29,NNW,343,4.0,9.0,61,0.00,,,0.00,weatherlink.com 1.10,2013-01-24 17:10:00,
2013-01-24 11:25:00,55.0,41.0,30.29,ENE,60,0.0,8.0,59,0.00,,,0.00,weatherlink.com 1.10,2013-01-24 17:25:00,
2013-01-24 11:40:00,55.1,40.0,30.28,NNE,23,5.0,11.0,57,0.00,,,0.00,weatherlink.com 1.10,2013-01-24 17:40:00,
2013-01-24 11:55:00,55.6,40.0,30.27,NE,46,2.0,7.0,56,0.00,,,0.00,weatherlink.com 1.10,2013-01-24 17:55:00,
2013-01-24 12:10:00,56.2,40.0,30.27,NNE,30,2.0,9.0,55,0.00,,,0.00,weatherlink.com 1.10,2013-01-24 18:10:00,
2013-01-24 12:25:00,56.5,39.0,30.27,NNW,332,6.0,8.0,53,0.00,,,0.00,weatherlink.com 1.10,2013-01-24 18:25:00,
2013-01-24 12:40:00,56.4,38.0,30.26,NW,321,1.0,7.0,51,0.00,,,0.00,weatherlink.com 1.10,2013-01-24 18:40:00,
2013-01-24 12:55:00,57.3,39.0,30.25,NE,46,3.0,8.0,50,0.00,,,0.00,weatherlink.com 1.10,2013-01-24 18:55:00,
2013-01-24 13:10:00,57.9,39.0,30.25,NNW,334,0.0,9.0,49,0.00,,,0.00,weatherlink.com 1.10,2013-01-24 19:10:00,
2013-01-24 13:25:00,57.6,38.0,30.25,NNW,345,4.0,10.0,49,0.00,,,0.00,weatherlink.com 1.10,2013-01-24 19:25:00,
2013-01-24 13:40:00,58.0,39.0,30.25,NE,34,3.0,7.0,49,0.00,,,0.00,weatherlink.com 1.10,2013-01-24 19:40:00,
2013-01-24 13:55:00,58.2,38.0,30.24,North,353,5.0,9.0,47,0.00,,,0.00,weatherlink.com 1.10,2013-01-24 19:55:00,
2013-01-24 14:10:00,58.2,37.0,30.24,ENE,57,5.0,8.0,45,0.00,,,0.00,weatherlink.com 1.10,2013-01-24 20:10:00,
2013-01-24 14:25:00,58.5,36.0,30.24,North,8,6.0,11.0,43,0.00,,,0.00,weatherlink.com 1.10,2013-01-24 20:25:00,
2013-01-24 14:40:00,58.1,35.0,30.24,NNE,26,6.0,8.0,43,0.00,,,0.00,weatherlink.com 1.10,2013-01-24 20:40:00,
2013-01-24 14:55:00,58.0,35.0,30.24,NE,39,5.0,6.0,43,0.00,,,0.00,weatherlink.com 1.10,2013-01-24 20:55:00,
2013-01-24 15:10:00,58.0,35.0,30.24,NNE,32,3.0,9.0,42,0.00,,,0.00,weatherlink.com 1.10,2013-01-24 21:10:00,
2013-01-24 15:25:00,57.2,35.0,30.24,NNE,16,2.0,7.0,43,0.00,,,0.00,weatherlink.com 1.10,2013-01-24 21:25:00,
2013-01-24 15:40:00,56.3,34.0,30.24,WNW,288,2.0,7.0,44,0.00,,,0.00,weatherlink.com 1.10,2013-01-24 21:40:00,
2013-01-24 15:55:00,55.9,34.0,30.24,NNE,29,3.0,6.0,44,0.00,,,0.00,weatherlink.com 1.10,2013-01-24 21:55:00,
2013-01-24 16:10:00,55.4,32.0,30.24,NNE,13,6.0,7.0,42,0.00,,,0.00,weatherlink.com 1.10,2013-01-24 22:10:00,
2013-01-24 16:25:00,55.0,31.0,30.24,North,352,4.0,7.0,41,0.00,,,0.00,weatherlink.com 1.10,2013-01-24 22:25:00,
2013-01-24 16:40:00,54.5,31.0,30.24,North,5,1.0,4.0,41,0.00,,,0.00,weatherlink.com 1.10,2013-01-24 22:40:00,
2013-01-24 16:55:00,53.7,30.0,30.25,North,360,3.0,7.0,41,0.00,,,0.00,weatherlink.com 1.10,2013-01-24 22:55:00,
2013-01-24 17:10:00,52.8,29.0,30.26,North,6,3.0,7.0,41,0.00,,,0.00,weatherlink.com 1.10,2013-01-24 23:10:00,
2013-01-24 17:25:00,51.8,28.0,30.26,NE,46,5.0,8.0,40,0.00,,,0.00,weatherlink.com 1.10,2013-01-24 23:25:00,
2013-01-24 17:40:00,50.9,27.0,30.27,NNE,17,5.0,8.0,39,0.00,,,0.00,weatherlink.com 1.10,2013-01-24 23:40:00,
2013-01-24 17:55:00,50.4,27.0,30.28,NNE,13,1.0,6.0,40,0.00,,,0.00,weatherlink.com 1.10,2013-01-24 23:55:00,
2013-01-24 18:10:00,49.9,26.0,30.28,NNE,16,4.0,5.0,40,0.00,,,0.00,weatherlink.com 1.10,2013-01-25 00:10:00,
2013-01-24 18:25:00,49.3,26.0,30.27,NNE,17,1.0,3.0,41,0.00,,,0.00,weatherlink.com 1.10,2013-01-25 00:25:00,
2013-01-24 18:40:00,48.8,26.0,30.27,NNE,32,0.0,2.0,42,0.00,,,0.00,weatherlink.com 1.10,2013-01-25 00:40:00,
2013-01-24 18:55:00,48.4,26.0,30.27,North,9,0.0,0.0,42,0.00,,,0.00,weatherlink.com 1.10,2013-01-25 00:55:00,
2013-01-24 19:10:00,48.4,27.0,30.28,North,8,2.0,3.0,43,0.00,,,0.00,weatherlink.com 1.10,2013-01-25 01:10:00,
2013-01-24 19:26:00,48.4,27.0,30.28,NNE,33,0.0,3.0,43,0.00,,,0.00,weatherlink.com 1.10,2013-01-25 01:26:00,
2013-01-24 19:41:00,48.2,26.0,30.28,NW,322,0.0,4.0,43,0.00,,,0.00,weatherlink.com 1.10,2013-01-25 01:41:00,
2013-01-24 19:56:00,48.1,26.0,30.27,ENE,67,1.0,6.0,43,0.00,,,0.00,weatherlink.com 1.10,2013-01-25 01:56:00,
2013-01-24 20:11:00,47.9,26.0,30.27,NNE,17,1.0,6.0,43,0.00,,,0.00,weatherlink.com 1.10,2013-01-25 02:11:00,
2013-01-24 20:26:00,47.5,26.0,30.26,North,6,0.0,3.0,44,0.00,,,0.00,weatherlink.com 1.10,2013-01-25 02:26:00,
2013-01-24 20:41:00,47.9,26.0,30.25,East,89,3.0,8.0,42,0.00,,,0.00,weatherlink.com 1.10,2013-01-25 02:41:00,
2013-01-24 20:56:00,48.2,25.0,30.27,NE,48,8.0,8.0,41,0.00,,,0.00,weatherlink.com 1.10,2013-01-25 02:56:00,
2013-01-24 21:11:00,48.3,25.0,30.27,ENE,71,0.0,4.0,40,0.00,,,0.00,weatherlink.com 1.10,2013-01-25 03:11:00,
2013-01-24 21:26:00,48.3,24.0,30.26,NNE,13,0.0,4.0,39,0.00,,,0.00,weatherlink.com 1.10,2013-01-25 03:26:00,
2013-01-24 21:41:00,48.1,23.0,30.25,East,92,0.0,4.0,37,0.00,,,0.00,weatherlink.com 1.10,2013-01-25 03:41:00,
2013-01-24 21:56:00,47.8,22.0,30.24,East,80,2.0,5.0,37,0.00,,,0.00,weatherlink.com 1.10,2013-01-25 03:56:00,
2013-01-24 22:11:00,47.5,23.0,30.24,SE,134,0.0,5.0,38,0.00,,,0.00,weatherlink.com 1.10,2013-01-25 04:11:00,
2013-01-24 22:26:00,47.3,23.0,30.25,ESE,113,0.0,4.0,39,0.00,,,0.00,weatherlink.com 1.10,2013-01-25 04:26:00,
2013-01-24 22:41:00,47.0,24.0,30.25,ESE,102,0.0,3.0,40,0.00,,,0.00,weatherlink.com 1.10,2013-01-25 04:41:00,
2013-01-24 22:56:00,46.8,24.0,30.25,East,95,2.0,5.0,41,0.00,,,0.00,weatherlink.com 1.10,2013-01-25 04:56:00,
2013-01-24 23:11:00,46.5,24.0,30.24,SE,131,1.0,6.0,41,0.00,,,0.00,weatherlink.com 1.10,2013-01-25 05:11:00,
2013-01-24 23:26:00,46.4,24.0,30.24,East,84,0.0,8.0,42,0.00,,,0.00,weatherlink.com 1.10,2013-01-25 05:26:00,
2013-01-24 23:41:00,46.3,25.0,30.24,NE,53,2.0,5.0,43,0.00,,,0.00,weatherlink.com 1.10,2013-01-25 05:41:00,
2013-01-24 23:56:00,45.9,25.0,30.23,East,80,8.0,9.0,44,0.00,,,0.00,weatherlink.com 1.10,2013-01-25 05:56:00,